"Pseudo-MPEC" for A10VDyu

Created 2023 Jun 11 0:22:04 UT using Find_Orb

Click here for an explanation of pseudo-MPECs

 
 Astrometry: 
     A10VDyu* C2023 06 10mdS-Astrometryk64/6nJtRy'u#6nGmF(*mU`8Hredacted;bVV$W68
     A10VDyu  C2023 06 10=GnQV^Z2clickRZ9'7*u^Qx_Z\RiBj7*mb=o0o%nI`[!tt\1$Xp0W68
     A10VDyu  C2023 06 100/jFaYhRJL,rhJAxsFFB`'wZYFZkpj!%4!fGirLo%D]Oe[He(DL/W68
     A10VDyu  C2023 06 10A,eRljhereG'YInZl@,bEPENo'P[ct-rom8p8\=*;fRv3r(ur3tFW68
     A10VDyu  C2023 06 10\UQ=K$kur)kLuaNW$2sEdIX7+-/[/!7:r/fwTforaI7,u2m#jK6=W68
     A10VDyu  C2023 06 10pTfNkK5TjqEbXqexplanationqxn9q=yFPlJt:7hnWq:(,nLWfK?W68
     A10VDyu mC2023 06 10.45912418 12 48.247-09 36 44.89   ~6ABM 16.03GVNEOCPI52
     A10VDyu mC2023 06 10.46133418 13 16.669-09 36 51.77   ~6ABM 16.05GVNEOCPI52
     A10VDyu mC2023 06 10.46142318 13 17.821-09 36 51.59   ~6ABM 15.96GVNEOCPI52
     A10VDyu mC2023 06 10.46151218 13 18.952-09 36 51.62   ~6ABM       VNEOCPI52

Station data:
(I52) Steward Observatory, Mt. Lemmon Station  (N32.442544 W110.788920)
   US/Arizona.  Observers T. A. Pruyne, B. M. Africano, E. J. Christensen, G.
   A. Farneth, D. C. Fuls, A. R. Gibbs, A. D. Grauer, H. Gröller, J. A.
   Johnson, R. A. Kowalski, S. M. Larson, G. J. Leonard, D. Rankin, R. L.
   Seaman, F. C. Shelly, K. W. Wierzchoś. 1.0-m prime focus + CCD.
(W68) ATLAS Chile, Rio Hurtado  (S30.471010 W70.764980)  Chile.  Observers L.
   Denneau, R. Siverd, J. Tonry, H. Weiland. Measurers L. Denneau, N.
   Erasmus, A. Fitzsimmons, A. Lawrence, J. Robinson, R. Siverd, J. Tonry, H.
   Weiland. 0.5-m reflector + CCD.

Orbital elements:  A10VDyu
   Perigee 2023 Jun 9.77163 +/- 0.000652 TT = 18:31:08 (JD 2460105.27163)
Epoch 2023 Jun 10.0 TT = JDT 2460105.5                           AutoNEOCP
M  77.27253689 +/- 0.17             (J2000 equator)
n 338.36211577 +/- 0.232            Peri.   76.56805 +/- 0.07
a 44023.2753 +/- 20.1               Node     8.88739 +/- 0.054
e   0.7929740 +/- 0.000186          Incl.    6.48848 +/- 0.0011
P1532.06m/1.064d           H 32.04  G  0.15   U 11.8
q 9113.96109 +/- 12.3    Q 78932.5896 +/- 27.9
From 10 observations 2023 June 10 (6.0 hr); mean residual 0".41
Residuals in arcseconds: 
230610 W68  1.1-  .16-    230610 W68  .37+  .01-    230610 I52  .06+  .00     
230610 W68  .84+  .03-    230610 W68  .55-  .13-    230610 I52  .21-  .22+    
230610 W68  .30-  .08+    230610 I52  .13+  .22+    
230610 W68  .73+  .26+    230610 I52  .01+  .43-    

Ephemerides (geocentric):
Date (UTC) HH   RA             Dec           delta  r     elong  mag " sig PA
---- --------  ------------   ------------  ------ ------ -----  --- --------
2023 06 11 00  15 35 17.669   -04 35 41.41   50433 1.0155 149.8 16.1  198  98
2023 06 11 01  15 58 19.267   -05 01 51.99   57163 1.0156 154.3 16.2  184  97
2023 06 11 02  16 16 51.864   -05 20 43.99   62756 1.0157 157.5 16.3  175  96
2023 06 11 03  16 32 37.177   -05 35 06.91   67375 1.0157 159.8 16.4  168  96
2023 06 11 04  16 46 32.095   -05 46 30.20   71130 1.0157 161.4 16.5  163  95
2023 06 11 05  16 59 11.908   -05 55 45.64   74096 1.0158 162.5 16.5  159  94
2023 06 11 06  17 11 00.439   -06 03 25.15   76328 1.0158 163.0 16.6  156  94
2023 06 11 07  17 22 15.057   -06 09 49.18   77861 1.0158 163.0 16.6  155  93
2023 06 11 08  17 33 09.438   -06 15 11.01   78721 1.0158 162.7 16.6  154  93
2023 06 11 09  17 43 55.260   -06 19 39.04   78918 1.0158 162.0 16.7  155  92
2023 06 11 10  17 54 43.399   -06 23 17.94   78458 1.0158 160.9 16.7  157  91
2023 06 11 11  18 05 44.938   -06 26 09.15   77332 1.0158 159.6 16.7  160  91
2023 06 11 12  18 17 12.226   -06 28 10.77   75524 1.0158 157.9 16.7  166  90
2023 06 11 13  18 29 20.229   -06 29 16.74   73005 1.0158 155.9 16.7  174  90
2023 06 11 14  18 42 28.576   -06 29 15.07   69732 1.0157 153.6 16.7  187  89
2023 06 11 15  18 57 05.038   -06 27 43.98   65643 1.0157 150.8 16.6  205  88
2023 06 11 16  19 13 52.117   -06 24 03.72   60651 1.0157 147.4 16.5  235  88
2023 06 11 17  19 34 01.015   -06 16 57.59   54628 1.0156 143.1 16.4  283  87
2023 06 11 18  19 59 45.603   -06 03 41.15   47383 1.0156 137.4 16.3  370  86
2023 06 11 19  20 36 03.109   -05 37 15.94   38614 1.0155 129.2 16.1  554  86
2023 06 11 20  21 37 23.399   -04 33 51.06   27821 1.0154 114.9 15.8 1083  85
2023 06 11 21  00 19 04.252   -00 28 13.66   14497 1.0153  76.2 15.9 4159  83
2023 06 11 22  10 16 59.049   +03 41 43.15   12654 1.0153  74.5 15.7 6260  95
2023 06 11 23  13 35 08.715   -01 40 52.53   26165 1.0155 121.9 15.4 1649  97
2023 06 12 00  14 42 13.400   -03 25 23.40   37286 1.0156 137.4 15.8  903  96
2023 06 12 01  15 20 27.103   -04 17 31.88   46295 1.0156 145.8 16.0  641  96
2023 06 12 02  15 47 05.850   -04 49 40.77   53726 1.0157 151.3 16.2  513  95
2023 06 12 03  16 07 44.632   -05 11 54.16   59902 1.0158 155.2 16.3  439  95
2023 06 12 04  16 24 49.920   -05 28 23.00   65025 1.0158 158.0 16.4  391  95
2023 06 12 05  16 39 38.152   -05 41 11.27   69231 1.0158 160.1 16.4  359  94
2023 06 12 06  16 52 54.342   -05 51 27.57   72610 1.0159 161.6 16.5  337  94
2023 06 12 07  17 05 07.581   -05 59 52.88   75229 1.0159 162.5 16.6  322  93
2023 06 12 08  17 16 38.230   -06 06 53.01   77132 1.0159 163.0 16.6  312  93
2023 06 12 09  17 27 41.673   -06 12 44.65   78350 1.0159 163.0 16.6  306  92
2023 06 12 10  17 38 30.478   -06 17 38.57   78900 1.0159 162.6 16.7  304  92
2023 06 12 11  17 49 15.812   -06 21 41.30   78792 1.0159 161.9 16.7  305  92
2023 06 12 12  18 00 08.520   -06 24 55.96   78023 1.0159 160.8 16.7  311  91
2023 06 12 13  18 11 20.122   -06 27 22.46   76583 1.0159 159.4 16.7  321  91
2023 06 12 14  18 23 03.980   -06 28 57.07   74449 1.0159 157.6 16.7  337  90
2023 06 12 15  18 35 36.900   -06 29 31.26   71585 1.0159 155.6 16.7  360  90
2023 06 12 16  18 49 21.717   -06 28 49.08   67942 1.0159 153.1 16.6  395  89
2023 06 12 17  19 04 51.914   -06 26 21.77   63446 1.0158 150.1 16.6  447  89
2023 06 12 18  19 23 00.822   -06 21 15.82   57994 1.0158 146.3 16.5  529  88
2023 06 12 19  19 45 22.302   -06 11 43.49   51431 1.0157 141.6 16.3  665  87
2023 06 12 20  20 15 05.376   -05 53 37.38   43524 1.0157 134.9 16.2  922  87
2023 06 12 21  20 59 57.824   -05 15 11.01   33892 1.0156 124.6 15.9 1517  86
2023 06 12 22  22 28 04.282   -03 26 17.57   21919 1.0155 103.8 15.6 3646  84
2023 06 12 23  04 20 53.522   +05 24 38.72    9359 1.0154  23.2 21?? 345'  86